Warroad, MN

1:22 AM CST on February 26, 2017 (GMT -0600)
Warroad International-Carlson

Weather History for KRRT - May, 2013

Change the Weather History Date:

Tuesday, May 14, 2013

  Actual Average Record
Temperature  
Mean Temperature 62 °F -  
Max Temperature 77 °F 63 °F 88 °F (1977)
Min Temperature 46 °F 39 °F 22 °F (1983)
Degree Days  
Heating Degree Days 4    
Growing Degree Days 12 (Base 50)    
Moisture  
Dew Point 48 °F    
Average Humidity 63    
Maximum Humidity 88    
Minimum Humidity 36    
Precipitation  
Precipitation 0.04 in - - ()
Sea Level Pressure  
Sea Level Pressure 29.52 in    
Wind  
Wind Speed 10 mph (SW)    
Max Wind Speed 34 mph    
Max Gust Speed 43 mph    
Visibility 10 miles    
Events Rain    
Averages and records for this station are not official NWS values.
T = Trace of Precipitation, MM = Missing Value Source: NWS Daily Summary

Daily Weather History Graph

Daily Weather History Graph

Search for Another Location

Airport or City:

Trip Planner

Search our weather history database for the weather conditions in past years. The results will help you decide how hot, cold, wet, or windy it might be!

Date:

Astronomy

May. 14, 2013 Rise Set
Actual Time 5:40 AM CDT 8:56 PM CDT
Civil Twilight 5:02 AM CDT 9:34 PM CDT
Nautical Twilight 4:12 AM CDT 10:24 PM CDT
Astronomical Twilight 3:08 AM CDT 11:29 PM CDT
Moon 9:21 AM CDT (5/14) 12:04 AM CDT (5/14)
Length of Visible Light 16h 31m
Length of Day
15h 15m
Waxing Crescent, 19% of the Moon is Illuminated
May 14
Waxing Crescent
May 17
First Quarter
May 24
Full
May 31
Last Quarter
Jun 8
New

Hourly Weather History & Observations

Time (CDT) Temp. Dew Point Humidity Pressure Visibility Wind Dir Wind Speed Gust Speed Precip Events Conditions
12:14 AM 48.2 °F 39.2 °F 71% 29.60 in 10.0 mi Calm Calm - N/A   Clear
12:33 AM 48.2 °F 39.2 °F 71% 29.59 in 10.0 mi Calm Calm - N/A   Clear
12:54 AM 46.4 °F 39.2 °F 76% 29.59 in 10.0 mi Calm Calm - N/A   Clear
1:14 AM 48.2 °F 41.0 °F 76% 29.59 in 10.0 mi Calm Calm - N/A   Clear
1:34 AM 46.4 °F 41.0 °F 81% 29.59 in 10.0 mi Calm Calm - N/A   Scattered Clouds
1:54 AM 50.0 °F 42.8 °F 76% 29.59 in 10.0 mi SSW 3.5 mph - N/A   Mostly Cloudy
2:14 AM 50.0 °F 42.8 °F 76% 29.58 in 10.0 mi Calm Calm - N/A   Scattered Clouds
2:34 AM 48.2 °F 42.8 °F 82% 29.58 in 10.0 mi Calm Calm - N/A   Clear
2:54 AM 48.2 °F 42.8 °F 82% 29.58 in 10.0 mi South 4.6 mph - N/A   Clear
3:14 AM 53.6 °F 42.8 °F 67% 29.58 in 10.0 mi South 4.6 mph - N/A   Clear
3:34 AM 53.6 °F 42.8 °F 67% 29.57 in 10.0 mi South 3.5 mph - N/A   Clear
3:54 AM 51.8 °F 42.8 °F 71% 29.56 in 10.0 mi South 3.5 mph - N/A   Clear
4:14 AM 51.8 °F 42.8 °F 71% 29.55 in 10.0 mi South 4.6 mph - N/A   Clear
4:34 AM 53.6 °F 42.8 °F 67% 29.55 in 10.0 mi South 3.5 mph - N/A   Clear
4:54 AM 53.6 °F 42.8 °F 67% 29.55 in 10.0 mi South 6.9 mph - N/A   Scattered Clouds
5:14 AM 53.6 °F 42.8 °F 67% 29.53 in 10.0 mi South 6.9 mph - N/A   Clear
5:34 AM 55.4 °F 42.8 °F 63% 29.54 in 10.0 mi South 3.5 mph - N/A   Scattered Clouds
5:54 AM 55.4 °F 44.6 °F 67% 29.55 in 7.0 mi South 8.1 mph - N/A   Scattered Clouds
6:14 AM 57.2 °F 42.8 °F 59% 29.56 in 7.0 mi SSW 3.5 mph - N/A   Scattered Clouds
6:34 AM 60.8 °F 42.8 °F 52% 29.58 in 7.0 mi WSW 4.6 mph - N/A   Scattered Clouds
6:54 AM 60.8 °F 42.8 °F 52% 29.62 in 7.0 mi SW 12.7 mph - N/A Rain Rain
7:14 AM 55.4 °F 46.4 °F 72% 29.65 in 10.0 mi SW 10.4 mph 16.1 mph N/A Rain Light Rain
7:34 AM 57.2 °F 50.0 °F 77% 29.63 in 10.0 mi WSW 12.7 mph 20.7 mph 0.01 in Rain Light Rain
7:54 AM 55.4 °F 48.2 °F 77% 29.62 in 10.0 mi SSW 10.4 mph - 0.01 in Rain Light Rain
8:14 AM 55.4 °F 50.0 °F 82% 29.59 in 10.0 mi SSW 9.2 mph - 0.01 in Rain Rain
8:34 AM 53.6 °F 50.0 °F 88% 29.56 in 10.0 mi South 10.4 mph - 0.02 in Rain Light Rain
8:54 AM 53.6 °F 50.0 °F 88% 29.52 in 10.0 mi South 12.7 mph - 0.03 in   Drizzle
9:14 AM 57.2 °F 53.6 °F 88% 29.49 in 10.0 mi South 18.4 mph 24.2 mph N/A   Clear
9:34 AM 57.2 °F 53.6 °F 88% 29.47 in 10.0 mi South 16.1 mph - N/A   Clear
9:54 AM 62.6 °F 57.2 °F 82% 29.47 in 10.0 mi South 10.4 mph 17.3 mph N/A   Clear
10:14 AM 66.2 °F 57.2 °F 73% 29.45 in 10.0 mi South 10.4 mph 19.6 mph N/A   Clear
10:34 AM 66.2 °F 57.2 °F 73% 29.45 in 10.0 mi South 16.1 mph - N/A   Clear
10:54 AM 69.8 °F 57.2 °F 64% 29.45 in 10.0 mi SSE 12.7 mph - N/A   Clear
11:14 AM 71.6 °F 57.2 °F 60% 29.44 in 10.0 mi South 15.0 mph 19.6 mph N/A   Clear
11:34 AM 73.4 °F 55.4 °F 53% 29.43 in 10.0 mi South 16.1 mph 26.5 mph N/A   Clear
11:54 AM 73.4 °F 55.4 °F 53% 29.43 in 10.0 mi South 18.4 mph 29.9 mph N/A   Clear
12:14 PM 75.2 °F 57.2 °F 53% 29.42 in 10.0 mi South 17.3 mph 25.3 mph N/A   Clear
12:34 PM 77.0 °F 57.2 °F 50% 29.41 in 10.0 mi SSW 23.0 mph 33.4 mph N/A   Clear
12:54 PM 77.0 °F 57.2 °F 50% 29.40 in 10.0 mi SW 20.7 mph 34.5 mph N/A   Scattered Clouds
1:14 PM 77.0 °F 55.4 °F 47% 29.40 in 10.0 mi SW 24.2 mph 36.8 mph N/A   Mostly Cloudy
1:34 PM 75.2 °F 57.2 °F 53% 29.39 in 10.0 mi SW 21.9 mph 33.4 mph N/A   Scattered Clouds
1:54 PM 75.2 °F 57.2 °F 53% 29.38 in 10.0 mi SW 24.2 mph 34.5 mph N/A   Scattered Clouds
2:14 PM 75.2 °F 57.2 °F 53% 29.38 in 10.0 mi West 34.5 mph 42.6 mph N/A   Scattered Clouds
2:34 PM 75.2 °F 53.6 °F 47% 29.38 in 10.0 mi WSW 25.3 mph 40.3 mph N/A   Clear
2:54 PM 75.2 °F 51.8 °F 44% 29.38 in 10.0 mi WSW 27.6 mph 38.0 mph N/A   Scattered Clouds
3:14 PM 75.2 °F 46.4 °F 36% 29.38 in 10.0 mi WSW 29.9 mph 40.3 mph N/A   Scattered Clouds
3:34 PM 75.2 °F 46.4 °F 36% 29.39 in 10.0 mi West 29.9 mph 42.6 mph N/A   Clear
3:54 PM 73.4 °F 46.4 °F 38% 29.40 in 10.0 mi West 28.8 mph 42.6 mph N/A   Scattered Clouds
4:14 PM 73.4 °F 48.2 °F 41% 29.41 in 10.0 mi West 32.2 mph 42.6 mph N/A   Scattered Clouds
4:33 PM 73.4 °F 48.2 °F 41% 29.42 in 10.0 mi West 21.9 mph 38.0 mph N/A   Scattered Clouds
4:54 PM 71.6 °F 46.4 °F 41% 29.42 in 10.0 mi West 28.8 mph 41.4 mph N/A   Scattered Clouds
5:14 PM 71.6 °F 48.2 °F 43% 29.43 in 10.0 mi West 26.5 mph 39.1 mph N/A   Scattered Clouds
5:34 PM 69.8 °F 48.2 °F 46% 29.44 in 10.0 mi West 20.7 mph 36.8 mph N/A   Scattered Clouds
5:54 PM 69.8 °F 48.2 °F 46% 29.44 in 10.0 mi West 23.0 mph 31.1 mph N/A   Scattered Clouds
6:13 PM 69.8 °F 48.2 °F 46% 29.45 in 10.0 mi West 21.9 mph 33.4 mph N/A   Scattered Clouds
6:34 PM 69.8 °F 50.0 °F 49% 29.47 in 10.0 mi West 24.2 mph 34.5 mph N/A   Scattered Clouds
6:54 PM 68.0 °F 50.0 °F 52% 29.48 in 10.0 mi WNW 13.8 mph 31.1 mph N/A   Clear
7:13 PM 68.0 °F 51.8 °F 56% 29.49 in 10.0 mi WNW 21.9 mph 27.6 mph N/A   Clear
7:34 PM 62.6 °F 51.8 °F 68% 29.52 in 10.0 mi WNW 27.6 mph 34.5 mph N/A   Mostly Cloudy
7:54 PM 62.6 °F 50.0 °F 63% 29.55 in 10.0 mi WNW 21.9 mph 34.5 mph N/A   Scattered Clouds
8:14 PM 60.8 °F 48.2 °F 63% 29.56 in 10.0 mi WNW 18.4 mph 32.2 mph N/A   Clear
8:34 PM 59.0 °F 46.4 °F 63% 29.59 in 10.0 mi WNW 20.7 mph 29.9 mph N/A   Clear
8:54 PM 57.2 °F 46.4 °F 67% 29.61 in 10.0 mi WNW 17.3 mph 25.3 mph N/A   Clear
9:14 PM 57.2 °F 46.4 °F 67% 29.64 in 10.0 mi NW 17.3 mph 21.9 mph N/A   Clear
9:34 PM 57.2 °F 46.4 °F 67% 29.65 in 10.0 mi WNW 13.8 mph 20.7 mph N/A   Clear
9:54 PM 55.4 °F 46.4 °F 72% 29.67 in 10.0 mi WNW 13.8 mph 18.4 mph N/A   Clear
10:14 PM 55.4 °F 46.4 °F 72% 29.67 in 10.0 mi WNW 10.4 mph 18.4 mph N/A   Clear
10:34 PM 55.4 °F 44.6 °F 67% 29.68 in 10.0 mi WNW 6.9 mph - N/A   Clear
10:54 PM 53.6 °F 44.6 °F 72% 29.68 in 10.0 mi WNW 8.1 mph - N/A   Clear
11:14 PM 51.8 °F 44.6 °F 76% 29.69 in 10.0 mi West 6.9 mph - N/A   Clear
11:34 PM 51.8 °F 44.6 °F 76% 29.69 in 10.0 mi WSW 8.1 mph - N/A   Clear
11:54 PM 51.8 °F 44.6 °F 76% 29.69 in 10.0 mi WSW 5.8 mph - N/A   Clear